Weather History for Pierre, SD

Change the Weather History Date:

Saturday, November 24, 2012

  Actual Average Record
Temperature  
Mean Temperature 35 °F 29 °F  
Max Temperature 48 °F 39 °F 70 °F (1990)
Min Temperature 22 °F 19 °F -9 °F (1985)
Degree Days  
Heating Degree Days 30 36  
Month to date heating degree days 689 714  
Since 1 July heating degree days 1344 1395  
Cooling Degree Days 0 0  
Month to date cooling degree days 0 0  
Year to date cooling degree days 1112 868  
Moisture  
Dew Point 21 °F    
Average Humidity 59    
Maximum Humidity 74    
Minimum Humidity 43    
Precipitation  
Precipitation 0.00 in 0.02 in 0.42 in (1993)
Month to date precipitation 0.46 0.64  
Year to date precipitation 10.92 19.34  
Snow  
Snow 0.00 in 0.20 in 4.90 in (1993)
Month to date snowfall 2.2 4.1  
Since 1 July snowfall 2.2 5.1  
Snow Depth 0.00 in    
Sea Level Pressure  
Sea Level Pressure 29.97 in    
Wind  
Wind Speed 10 mph (SSW)    
Max Wind Speed 21 mph    
Max Gust Speed 25 mph    
Visibility 10 miles    
Events      
T = Trace of Precipitation, MM = Missing Value Source: NWS Daily Summary

Daily Weather History Graph

Daily Weather History Graph

Search for Another Location

Airport:

Trip Planner

Search our weather history database for the weather conditions in past years. The results will help you decide how hot, cold, wet, or windy it might be!

Date:

Astronomy

Nov. 24, 2012 Rise Set
Actual Time 7:49 AM CST 5:06 PM CST
Civil Twilight 7:17 AM CST 5:38 PM CST
Nautical Twilight 6:41 AM CST 6:14 PM CST
Astronomical Twilight 6:06 AM CST 6:49 PM CST
Moon 2:57 PM CST (11/24) 4:01 AM CST (11/24)
Length of Visible Light 10h 21m
Length of Day
9h 16m
Waxing Gibbous, 87% of the Moon is Illuminated
Nov 24
Waxing Gibbous
Nov 28
Full
Dec 6
Last Quarter
Dec 13
New
Dec 19
First Quarter

Hourly Weather History & Observations

Time (CST) Temp. Windchill Dew Point Humidity Pressure Visibility Wind Dir Wind Speed Gust Speed Precip Events Conditions
12:53 AM 24.1 °F 12.5 °F 16.0 °F 71% 30.24 in 10.0 mi ESE 12.7 mph - N/A   Clear
1:53 AM 24.1 °F 12.5 °F 16.0 °F 71% 30.19 in 10.0 mi ESE 12.7 mph - N/A   Clear
2:53 AM 26.1 °F 14.0 °F 17.1 °F 69% 30.14 in 10.0 mi ESE 15.0 mph 23.0 mph N/A   Clear
3:53 AM 25.0 °F 11.7 °F 17.1 °F 72% 30.11 in 10.0 mi SE 17.3 mph - N/A   Clear
4:53 AM 25.0 °F 14.2 °F 16.0 °F 69% 30.08 in 10.0 mi SE 11.5 mph - N/A   Clear
5:53 AM 25.0 °F 13.6 °F 15.1 °F 66% 30.04 in 10.0 mi SE 12.7 mph - N/A   Clear
6:53 AM 24.1 °F 15.2 °F 15.1 °F 69% 30.04 in 10.0 mi ESE 8.1 mph - N/A   Clear
7:53 AM 23.0 °F 15.8 °F 15.1 °F 72% 30.02 in 10.0 mi ESE 5.8 mph - N/A   Clear
8:53 AM 25.0 °F 14.8 °F 17.1 °F 72% 29.99 in 10.0 mi SE 10.4 mph - N/A   Clear
9:53 AM 27.0 °F 18.0 °F 17.1 °F 66% 29.98 in 10.0 mi SSE 9.2 mph - N/A   Clear
10:53 AM 28.9 °F 25.2 °F 17.1 °F 61% 29.95 in 10.0 mi South 3.5 mph - N/A   Clear
11:53 AM 32.0 °F 26.4 °F 18.0 °F 56% 29.92 in 10.0 mi SW 5.8 mph - N/A   Clear
12:53 PM 33.1 °F 28.7 °F 18.0 °F 54% 29.88 in 10.0 mi SW 4.6 mph - N/A   Partly Cloudy
1:53 PM 37.0 °F 31.0 °F 19.0 °F 48% 29.87 in 10.0 mi West 8.1 mph - N/A   Clear
2:53 PM 41.0 °F 36.4 °F 21.0 °F 45% 29.85 in 10.0 mi West 6.9 mph - N/A   Clear
3:53 PM 43.0 °F 38.8 °F 21.9 °F 43% 29.85 in 10.0 mi West 6.9 mph - N/A   Clear
4:53 PM 41.0 °F 38.0 °F 23.0 °F 49% 29.86 in 10.0 mi West 4.6 mph - N/A   Overcast
5:53 PM 41.0 °F 37.1 °F 24.1 °F 51% 29.88 in 10.0 mi West 5.8 mph - N/A   Scattered Clouds
6:53 PM 46.0 °F 41.0 °F 28.9 °F 51% 29.87 in 10.0 mi West 10.4 mph - N/A   Scattered Clouds
7:53 PM 48.0 °F - 34.0 °F 58% 29.88 in 10.0 mi NW 16.1 mph - N/A   Partly Cloudy
8:53 PM 46.0 °F 40.6 °F 34.0 °F 63% 29.90 in 10.0 mi NW 11.5 mph - N/A   Clear
9:53 PM 41.0 °F 35.8 °F 30.9 °F 67% 29.93 in 10.0 mi NNW 8.1 mph - N/A   Clear
10:53 PM 41.0 °F 33.1 °F 30.0 °F 65% 29.94 in 10.0 mi North 15.0 mph - N/A   Clear
11:53 PM 37.0 °F 27.4 °F 28.9 °F 73% 29.96 in 10.0 mi NNW 17.3 mph - N/A   Clear